Flag for Switzerland Weather past 2 weeks in Delémont, Jura, Switzerland

Now
61 °F

Cool.


Feels Like: 61 °F
Forecast: 54 / 87 °F
Wind: 1 mph from Northwest

Location: Grenchen

Current Time: Aug 2, 2015 at 10:20:46 AM

Latest Report: Aug 2, 2015 at 9:00 AM


Visibility: N/A

Pressure: 30.13 "Hg

Humidity: 90%

Dew point: 58 °F

Location of DelémontLocation

Historic Weather in Delémont — Graph

°F

Delémont temperature yesterday

Maximum temperature yesterday: 66 °F (at 4:00 PM)
Minimum temperature yesterday: 58 °F (at 2:00 AM)
Average temperature yesterday: 61 °F

Past Weeks' High & Low Weather Summary

 TemperatureHumidityPressure
High92 °F (Jul 21, 6:00 PM)97% (Jul 19, 4:00 AM)30.20 "Hg (Jul 19, 4:00 AM)
Low49 °F (Jul 30, 6:00 AM)32% (Jul 25, 6:00 PM)29.64 "Hg (Jul 24, 7:00 PM)
Average69 °F65%29.94 "Hg
* Reported Jul 18 9:00 AM — Aug 2 9:00 AM, Delémont, Weather by CustomWeather, © 2015

Note: Actual official high and low records may vary slightly from our data, if they occured in-between our weather recording intervals... More about our weather records

Advertising

Delémont weather history for previous 24 hours

 ConditionsComfort  
Time TempWeatherWind HumidityBarometerVisibility
9:00 AM
Sun, Aug 2
61 °FCool.1 mph90%30.13 "HgN/A
8:00 AM60 °FCool.No wind92%30.12 "HgN/A
7:00 AM59 °FCool.1 mph94%30.12 "HgN/A
6:00 AM59 °FCool.2 mph92%30.11 "HgN/A
4:00 AM61 °FCool.No wind95%30.09 "HgN/A
3:00 AM61 °FCool.No wind95%30.09 "HgN/A
12:00 AM61 °FCool.2 mph97%30.09 "HgN/A
10:00 PM
Sat, Aug 1
61 °FCool.1 mph96%30.07 "HgN/A
9:00 PM61 °FCool.3 mph95%30.05 "HgN/A
7:00 PM65 °FMild.2 mph76%30.00 "HgN/A
6:00 PM66 °FMild.2 mph73%30.00 "HgN/A
5:00 PM66 °FMild.3 mph72%30.00 "HgN/A
4:00 PM66 °FMild.1 mph72%29.99 "HgN/A
3:00 PM65 °FMild.1 mph72%29.99 "HgN/A
2:00 PM65 °FMild.2 mph72%29.99 "HgN/A
1:00 PM65 °FMild.2 mph75%29.99 "HgN/A
12:00 PM63 °FMild.2 mph82%30.01 "HgN/A
11:00 AM61 °FCool.1 mph90%30.02 "HgN/A
10:00 AM59 °FCool.1 mph94%30.02 "HgN/A
Weather by CustomWeather, © 2015

See weather overviewHow to use our weather pages